When you browse on this site, cookies collect data to enhance your experience and personalize the content and advertising you see.
Visit our Privacy Policy to learn more. By continuing to use the site, you agree to this use of cookies and data.

Hourly Weather Ordino

Today, 2 July, Thursday

Time Temperature Precipitation Wind Pressure Humidity
00:00 +14°C° 0 mm 0 mps 634 mmHg 85%
01:00 +13°C° 0.3 mm 0 mps 634 mmHg 88%
02:00 +13°C° 0.3 mm 0 mps 633 mmHg 90%
03:00 +13°C° 0.3 mm 0 mps 633 mmHg 93%
04:00 +13°C° 0.6 mm 0 mps 633 mmHg 93%
05:00 +13°C° 0.6 mm 0 mps 634 mmHg 93%
06:00 +14°C° 0.6 mm 0 mps 634 mmHg 93%
07:00 +16°C° 0.7 mm 1 mps 634 mmHg 89%
08:00 +18°C° 0.7 mm 1 mps 635 mmHg 85%
09:00 +18°C° 0.7 mm 2 mps 635 mmHg 81%
10:00 +18°C° 0.7 mm 2 mps 636 mmHg 80%
11:00 +18°C° 0.7 mm 2 mps 636 mmHg 79%
12:00 +19°C° 0.7 mm 2 mps 636 mmHg 78%
13:00 +18°C° 0.7 mm 2 mps 636 mmHg 79%
14:00 +18°C° 0.7 mm 2 mps 635 mmHg 80%
15:00 +18°C° 0.7 mm 2 mps 635 mmHg 81%
16:00 +17°C° 0.6 mm 2 mps 635 mmHg 84%
17:00 +16°C° 0.6 mm 2 mps 635 mmHg 87%
18:00 +15°C° 0.6 mm 2 mps 634 mmHg 90%
19:00 +14°C° 0.3 mm 2 mps 634 mmHg 92%
20:00 +13°C° 0.3 mm 2 mps 635 mmHg 94%
21:00 +12°C° 0.3 mm 2 mps 635 mmHg 96%
22:00 +12°C° 0.2 mm 2 mps 635 mmHg 96%
23:00 +10°C° 0.2 mm 2 mps 635 mmHg 96%

Tomorrow, 3 July, Friday

Time Temperature Precipitation Wind Pressure Humidity
00:00 +10°C° 0.2 mm 2 mps 635 mmHg 96%
01:00 +10°C° 0 mm 2 mps 635 mmHg 96%
02:00 +10°C° 0 mm 2 mps 635 mmHg 96%
03:00 +9°C° 0 mm 2 mps 635 mmHg 96%
04:00 +9°C° 0 mm 2 mps 635 mmHg 95%
05:00 +9°C° 0 mm 2 mps 635 mmHg 94%
06:00 +9°C° 0 mm 2 mps 635 mmHg 93%
07:00 +10°C° 0 mm 2 mps 636 mmHg 87%
08:00 +12°C° 0 mm 2 mps 636 mmHg 80%
09:00 +13°C° 0 mm 2 mps 637 mmHg 74%
10:00 +15°C° 0 mm 2 mps 637 mmHg 64%
11:00 +17°C° 0 mm 2 mps 638 mmHg 55%
12:00 +19°C° 0 mm 2 mps 638 mmHg 46%
13:00 +19°C° 0 mm 2 mps 638 mmHg 46%
14:00 +19°C° 0 mm 2 mps 638 mmHg 46%
15:00 +19°C° 0 mm 2 mps 638 mmHg 45%
16:00 +18°C° 0 mm 2 mps 638 mmHg 52%
17:00 +17°C° 0 mm 2 mps 637 mmHg 60%
18:00 +16°C° 0 mm 2 mps 637 mmHg 67%
19:00 +14°C° 0 mm 2 mps 636 mmHg 74%
20:00 +12°C° 0 mm 2 mps 636 mmHg 81%
21:00 +9°C° 0 mm 2 mps 636 mmHg 87%
22:00 +9°C° 0 mm 2 mps 636 mmHg 85%
23:00 +8°C° 0 mm 2 mps 636 mmHg 83%

Day after tomorrow, 4 July, Saturday

Time Temperature Precipitation Wind Pressure Humidity
00:00 +8°C° 0 mm 2 mps 636 mmHg 81%
01:00 +9°C° 0 mm 1 mps 636 mmHg 76%
02:00 +9°C° 0 mm 1 mps 636 mmHg 71%
03:00 +9°C° 0 mm 1 mps 635 mmHg 67%
04:00 +10°C° 0 mm 1 mps 636 mmHg 64%
05:00 +11°C° 0 mm 1 mps 637 mmHg 60%
06:00 +12°C° 0 mm 1 mps 637 mmHg 57%
07:00 +15°C° 0 mm 1 mps 638 mmHg 51%
08:00 +18°C° 0 mm 1 mps 639 mmHg 44%
09:00 +20°C° 0 mm 1 mps 640 mmHg 38%
10:00 +21°C° 0 mm 1 mps 640 mmHg 39%
11:00 +22°C° 0 mm 1 mps 640 mmHg 39%
12:00 +23°C° 0 mm 2 mps 640 mmHg 40%
13:00 +23°C° 0 mm 2 mps 640 mmHg 42%
14:00 +23°C° 0 mm 2 mps 640 mmHg 44%
15:00 +23°C° 0 mm 2 mps 640 mmHg 46%
16:00 +22°C° 0 mm 1 mps 639 mmHg 53%
17:00 +21°C° 0 mm 1 mps 639 mmHg 60%
18:00 +19°C° 0 mm 1 mps 638 mmHg 67%
19:00 +16°C° 0 mm 1 mps 638 mmHg 74%
20:00 +14°C° 0 mm 1 mps 638 mmHg 81%
21:00 +12°C° 0 mm 1 mps 637 mmHg 88%
22:00 +12°C° 0 mm 1 mps 637 mmHg 83%
23:00 +12°C° 0 mm 1 mps 637 mmHg 78%

5 July, Sunday

Time Temperature Precipitation Wind Pressure Humidity
00:00 +12°C° 0 mm 1 mps 637 mmHg 73%
01:00 +12°C° 0 mm 2 mps 637 mmHg 67%
02:00 +12°C° 0 mm 2 mps 637 mmHg 60%
03:00 +10°C° 0 mm 2 mps 637 mmHg 54%
04:00 +12°C° 0 mm 1 mps 637 mmHg 55%
05:00 +13°C° 0 mm 1 mps 638 mmHg 56%
06:00 +14°C° 0 mm 1 mps 638 mmHg 57%
07:00 +18°C° 0 mm 1 mps 639 mmHg 53%
08:00 +20°C° 0 mm 1 mps 640 mmHg 48%
09:00 +23°C° 0 mm 1 mps 641 mmHg 43%
10:00 +24°C° 0 mm 1 mps 641 mmHg 42%
11:00 +24°C° 0 mm 1 mps 641 mmHg 42%
12:00 +25°C° 0 mm 2 mps 641 mmHg 41%
13:00 +25°C° 0 mm 2 mps 640 mmHg 43%
14:00 +25°C° 0 mm 2 mps 640 mmHg 45%
15:00 +25°C° 0 mm 2 mps 640 mmHg 46%
16:00 +24°C° 0 mm 2 mps 639 mmHg 53%
17:00 +23°C° 0 mm 2 mps 639 mmHg 60%
18:00 +21°C° 0 mm 1 mps 638 mmHg 67%
19:00 +19°C° 0 mm 1 mps 637 mmHg 73%
20:00 +16°C° 0 mm 1 mps 637 mmHg 79%
21:00 +14°C° 0 mm 1 mps 636 mmHg 85%
22:00 +14°C° 0 mm 1 mps 636 mmHg 81%
23:00 +14°C° 0 mm 1 mps 636 mmHg 77%

6 July, Monday

Time Temperature Precipitation Wind Pressure Humidity
00:00 +14°C° 0 mm 1 mps 636 mmHg 73%
01:00 +13°C° 0 mm 1 mps 635 mmHg 70%
02:00 +13°C° 0 mm 1 mps 635 mmHg 67%
03:00 +13°C° 0 mm 1 mps 635 mmHg 64%
04:00 +14°C° 0 mm 1 mps 635 mmHg 63%
05:00 +15°C° 0 mm 1 mps 635 mmHg 62%
06:00 +16°C° 0 mm 1 mps 636 mmHg 61%
07:00 +19°C° 0 mm 1 mps 637 mmHg 56%
08:00 +21°C° 0 mm 1 mps 637 mmHg 50%
09:00 +24°C° 0 mm 1 mps 638 mmHg 45%
10:00 +24°C° 0 mm 1 mps 638 mmHg 44%
11:00 +25°C° 0 mm 2 mps 638 mmHg 43%
12:00 +26°C° 0 mm 2 mps 639 mmHg 42%
13:00 +25°C° 0 mm 2 mps 638 mmHg 47%
14:00 +25°C° 0 mm 2 mps 638 mmHg 51%
15:00 +25°C° 0 mm 2 mps 637 mmHg 56%
16:00 +23°C° 0.2 mm 2 mps 637 mmHg 65%
17:00 +20°C° 0.2 mm 2 mps 636 mmHg 75%
18:00 +19°C° 0.2 mm 2 mps 635 mmHg 84%
19:00 +18°C° 0 mm 2 mps 635 mmHg 87%
20:00 +16°C° 0 mm 2 mps 635 mmHg 91%
21:00 +15°C° 0 mm 2 mps 635 mmHg 94%
22:00 +15°C° 0 mm 2 mps 635 mmHg 94%
23:00 +14°C° 0 mm 1 mps 635 mmHg 94%

7 July, Tuesday

Time Temperature Precipitation Wind Pressure Humidity
00:00 +14°C° 0 mm 1 mps 635 mmHg 94%
01:00 +14°C° 0 mm 1 mps 634 mmHg 94%
02:00 +14°C° 0 mm 1 mps 634 mmHg 94%
03:00 +13°C° 0 mm 1 mps 634 mmHg 94%
04:00 +14°C° 0 mm 1 mps 634 mmHg 93%
05:00 +14°C° 0 mm 2 mps 634 mmHg 92%
06:00 +14°C° 0 mm 2 mps 635 mmHg 91%
07:00 +16°C° 0 mm 2 mps 635 mmHg 84%
08:00 +18°C° 0 mm 1 mps 636 mmHg 77%
09:00 +20°C° 0 mm 1 mps 636 mmHg 70%
10:00 +20°C° 0 mm 2 mps 637 mmHg 64%
11:00 +21°C° 0 mm 2 mps 637 mmHg 58%
12:00 +24°C° 0 mm 2 mps 637 mmHg 52%
13:00 +23°C° 0.1 mm 2 mps 637 mmHg 56%
14:00 +23°C° 0.1 mm 2 mps 636 mmHg 59%
15:00 +21°C° 0.1 mm 2 mps 636 mmHg 63%
16:00 +20°C° 0.2 mm 2 mps 636 mmHg 68%
17:00 +20°C° 0.2 mm 1 mps 635 mmHg 73%
18:00 +19°C° 0.2 mm 1 mps 635 mmHg 79%
19:00 +16°C° 0 mm 1 mps 635 mmHg 83%
20:00 +15°C° 0 mm 1 mps 635 mmHg 87%
21:00 +13°C° 0 mm 0 mps 634 mmHg 92%
22:00 +14°C° 0 mm 1 mps 634 mmHg 93%
23:00 +13°C° 0 mm 1 mps 634 mmHg 94%
Show more